TimeEST,TemperatureF,Dew PointF,Humidity,Sea Level PressureIn,VisibilityMPH,Wind Direction,Wind SpeedMPH,Gust SpeedMPH,PrecipitationIn,Events,Conditions,WindDirDegrees,DateUTC
12:53 AM,37.9,37.0,97,30.40,4.0,Calm,Calm,-,N/A,,Clear,0,2012-11-12 05:53:00
1:53 AM,37.9,37.0,97,30.38,5.0,Calm,Calm,-,N/A,,Clear,0,2012-11-12 06:53:00
2:53 AM,39.0,37.0,93,30.38,5.0,Calm,Calm,-,N/A,,Clear,0,2012-11-12 07:53:00
3:53 AM,37.9,37.0,97,30.36,5.0,Calm,Calm,-,N/A,,Clear,0,2012-11-12 08:53:00
4:53 AM,37.0,36.0,96,30.37,5.0,Calm,Calm,-,N/A,,Clear,0,2012-11-12 09:53:00
5:53 AM,37.0,36.0,96,30.36,4.0,Calm,Calm,-,N/A,,Clear,0,2012-11-12 10:53:00
6:53 AM,37.9,37.0,97,30.36,5.0,Calm,Calm,-,N/A,,Clear,0,2012-11-12 11:53:00
7:53 AM,43.0,41.0,93,30.36,4.0,Calm,Calm,-,N/A,,Clear,0,2012-11-12 12:53:00
8:53 AM,57.9,48.9,72,30.35,10.0,SSW,6.9,-,N/A,,Clear,210,2012-11-12 13:53:00
9:53 AM,60.1,50.0,69,30.34,10.0,SSW,10.4,17.3,N/A,,Clear,210,2012-11-12 14:53:00
10:53 AM,63.0,51.1,65,30.32,10.0,SSW,9.2,18.4,N/A,,Clear,200,2012-11-12 15:53:00
11:53 AM,64.0,52.0,65,30.30,10.0,SSW,9.2,-,0.01,,Clear,200,2012-11-12 16:53:00
12:53 PM,64.0,53.1,67,30.27,10.0,South,11.5,26.5,N/A,,Clear,180,2012-11-12 17:53:00
1:53 PM,64.0,53.1,67,30.24,10.0,South,15.0,19.6,N/A,,Mostly Cloudy,170,2012-11-12 18:53:00
2:53 PM,63.0,52.0,67,30.20,10.0,South,9.2,-,N/A,,Mostly Cloudy,190,2012-11-12 19:53:00
3:53 PM,63.0,52.0,67,30.16,10.0,SSE,6.9,-,N/A,,Overcast,150,2012-11-12 20:53:00
4:53 PM,63.0,53.1,70,30.16,10.0,South,10.4,19.6,N/A,,Overcast,170,2012-11-12 21:53:00
5:53 PM,64.0,53.1,67,30.14,10.0,South,15.0,21.9,N/A,,Overcast,170,2012-11-12 22:53:00
6:53 PM,64.0,54.0,70,30.13,10.0,South,11.5,21.9,N/A,,Overcast,180,2012-11-12 23:53:00
7:53 PM,64.0,54.0,70,30.10,10.0,South,9.2,16.1,N/A,,Overcast,180,2012-11-13 00:53:00
8:53 PM,64.0,54.0,70,30.09,10.0,South,15.0,21.9,N/A,,Overcast,170,2012-11-13 01:53:00
9:53 PM,64.0,55.0,73,30.09,10.0,South,11.5,19.6,N/A,,Overcast,180,2012-11-13 02:53:00
10:34 PM,55.4,48.2,77,30.14,6.0,WNW,21.9,32.2,0.02,Rain,Rain,290,2012-11-13 03:34:00
10:48 PM,51.8,48.2,88,30.16,2.0,West,13.8,26.5,0.10,Rain,Heavy Rain,280,2012-11-13 03:48:00
10:53 PM,52.0,48.0,86,30.16,3.0,West,15.0,25.3,0.11,Rain,Heavy Rain,280,2012-11-13 03:53:00
11:53 PM,48.9,43.0,80,30.23,7.0,WNW,9.2,24.2,0.03,Rain,Light Rain,290,2012-11-13 04:53:00